TimeEDT,TemperatureF,Dew PointF,Humidity,Sea Level PressureIn,VisibilityMPH,Wind Direction,Wind SpeedMPH,Gust SpeedMPH,PrecipitationIn,Events,Conditions,WindDirDegrees,DateUTC
12:54 AM,51.1,39.0,63,30.30,10.0,Calm,Calm,-,N/A,,Clear,0,2013-04-28 04:54:00
1:54 AM,48.9,39.0,69,30.29,10.0,Calm,Calm,-,N/A,,Clear,0,2013-04-28 05:54:00
2:54 AM,48.0,37.9,68,30.28,10.0,Calm,Calm,-,N/A,,Clear,0,2013-04-28 06:54:00
3:54 AM,48.0,37.9,68,30.28,10.0,Calm,Calm,-,N/A,,Clear,0,2013-04-28 07:54:00
4:54 AM,46.0,39.0,76,30.27,10.0,Calm,Calm,-,N/A,,Clear,0,2013-04-28 08:54:00
5:54 AM,44.1,39.0,82,30.27,10.0,Calm,Calm,-,N/A,,Clear,0,2013-04-28 09:54:00
6:54 AM,45.0,39.0,80,30.29,10.0,Calm,Calm,-,N/A,,Clear,0,2013-04-28 10:54:00
7:54 AM,53.1,42.1,66,30.31,10.0,Calm,Calm,-,N/A,,Clear,0,2013-04-28 11:54:00
9:54 AM,60.1,42.1,51,30.29,10.0,South,4.6,-,N/A,,Clear,180,2013-04-28 13:54:00
10:54 AM,64.9,42.1,43,30.29,10.0,SSE,5.8,-,N/A,,Clear,150,2013-04-28 14:54:00
11:54 AM,66.9,37.0,33,30.29,10.0,SW,6.9,-,N/A,,Clear,220,2013-04-28 15:54:00
12:54 PM,69.1,35.1,29,30.27,10.0,South,10.4,16.1,N/A,,Clear,180,2013-04-28 16:54:00
1:54 PM,70.0,35.1,28,30.25,10.0,South,11.5,18.4,N/A,,Clear,180,2013-04-28 17:54:00
2:54 PM,68.0,34.0,28,30.25,10.0,South,11.5,18.4,N/A,,Clear,170,2013-04-28 18:54:00
3:54 PM,66.9,33.1,28,30.23,10.0,South,11.5,17.3,N/A,,Clear,190,2013-04-28 19:54:00
4:54 PM,66.0,32.0,28,30.21,10.0,Variable,5.8,-,N/A,,Clear,0,2013-04-28 20:54:00
5:54 PM,64.9,32.0,29,30.20,10.0,Variable,6.9,-,N/A,,Clear,0,2013-04-28 21:54:00
6:54 PM,63.0,30.9,30,30.20,10.0,SSW,5.8,-,N/A,,Overcast,200,2013-04-28 22:54:00
7:54 PM,61.0,30.0,31,30.19,10.0,South,4.6,-,N/A,,Overcast,190,2013-04-28 23:54:00
8:54 PM,60.1,28.9,31,30.20,10.0,Calm,Calm,-,N/A,,Overcast,0,2013-04-29 00:54:00
9:54 PM,59.0,33.1,38,30.22,10.0,Calm,Calm,-,0.00,Rain,Light Rain,0,2013-04-29 01:54:00
10:54 PM,55.0,39.0,55,30.22,10.0,Variable,3.5,-,0.00,,Overcast,0,2013-04-29 02:54:00
11:54 PM,54.0,41.0,62,30.22,10.0,Calm,Calm,-,N/A,,Overcast,0,2013-04-29 03:54:00